JST767 YPAD-YSSY

Flight info

Callsign JST767
Flight time 1h 29m
Altitude 37000
Route AD H247 CULIN Y59 TESAT
Aircraft A320/M-SDE3FGHIRWY/LB1

Departure

Time 2026-05-06 11:44
Airport Adelaide International Airport (YPAD)

Arrival

Time 2026-05-06 13:13
Airport Sydney Kingsford Smith International Airport (YSSY)
Time Latitude Longitude Altitude Speed Heading
2026-05-06 11:28 -34.94029 138.53696 27 ft 0 kts 319°
2026-05-06 11:36 -34.94035 138.53702 27 ft 4 kts 319°
2026-05-06 11:36 -34.94056 138.53723 27 ft 4 kts 321°
2026-05-06 11:37 -34.94078 138.53742 26 ft 4 kts 335°
2026-05-06 11:37 -34.94102 138.53749 27 ft 4 kts 14°
2026-05-06 11:37 -34.94115 138.53742 25 ft 1 kts 50°
2026-05-06 11:40 -34.94104 138.53757 28 ft 7 kts 50°
2026-05-06 11:40 -34.94062 138.53823 25 ft 12 kts 59°
2026-05-06 11:41 -34.94079 138.53920 25 ft 13 kts 101°
2026-05-06 11:41 -34.94037 138.54024 27 ft 15 kts 51°
2026-05-06 11:41 -34.93967 138.54126 27 ft 16 kts 52°
2026-05-06 11:41 -34.93966 138.54211 27 ft 7 kts 129°
2026-05-06 11:42 -34.93992 138.54238 27 ft 0 kts 142°
2026-05-06 11:42 -34.93998 138.54244 27 ft 4 kts 142°
2026-05-06 11:42 -34.94043 138.54288 28 ft 12 kts 142°
2026-05-06 11:42 -34.94118 138.54246 28 ft 15 kts 229°
2026-05-06 11:43 -34.94197 138.54130 27 ft 25 kts 230°
2026-05-06 11:43 -34.94447 138.53769 23 ft 88 kts 230°
2026-05-06 11:43 -34.94964 138.53019 22 ft 140 kts 229°
2026-05-06 11:44 -34.96273 138.51075 968 ft 148 kts 227°
2026-05-06 11:44 -34.96931 138.50116 1610 ft 148 kts 226°
2026-05-06 11:44 -34.97613 138.49135 2073 ft 160 kts 224°
2026-05-06 11:44 -34.98384 138.48037 2321 ft 182 kts 225°
2026-05-06 11:45 -34.99377 138.46975 2576 ft 200 kts 202°
2026-05-06 11:45 -35.00786 138.46758 2953 ft 223 kts 167°
2026-05-06 11:45 -35.02105 138.47841 3631 ft 245 kts 130°
2026-05-06 11:45 -35.02711 138.49852 4457 ft 263 kts 103°
2026-05-06 11:46 -35.02797 138.52127 5321 ft 273 kts 93°
2026-05-06 11:46 -35.02682 138.54477 6082 ft 283 kts 90°
2026-05-06 11:46 -35.02512 138.56906 6819 ft 292 kts 90°
2026-05-06 11:46 -35.02351 138.59404 7542 ft 299 kts 91°
2026-05-06 11:47 -35.02222 138.61947 8347 ft 303 kts 92°
2026-05-06 11:47 -35.02126 138.64534 9175 ft 307 kts 92°
2026-05-06 11:47 -35.02054 138.67159 9917 ft 312 kts 94°
2026-05-06 11:47 -35.02000 138.69804 10476 ft 324 kts 94°
2026-05-06 11:48 -35.01957 138.72639 10712 ft 347 kts 94°
2026-05-06 11:48 -35.01915 138.75678 10885 ft 370 kts 93°
2026-05-06 11:48 -35.01866 138.78898 11150 ft 387 kts 93°
2026-05-06 11:48 -35.01805 138.82218 11719 ft 394 kts 92°
2026-05-06 11:49 -35.01731 138.85578 12342 ft 399 kts 92°
2026-05-06 11:49 -35.01653 138.88985 12952 ft 405 kts 92°
2026-05-06 11:49 -35.01573 138.92431 13578 ft 409 kts 92°
2026-05-06 11:49 -35.01492 138.95875 14187 ft 414 kts 92°
2026-05-06 11:50 -35.01412 138.99398 14744 ft 418 kts 93°
2026-05-06 11:50 -35.01332 139.02958 15297 ft 421 kts 93°
2026-05-06 11:50 -35.01252 139.06544 15860 ft 425 kts 93°
2026-05-06 11:50 -35.01172 139.10157 16422 ft 428 kts 93°
2026-05-06 11:51 -35.01093 139.13809 16939 ft 433 kts 93°
2026-05-06 11:51 -35.01012 139.17500 17518 ft 437 kts 93°
2026-05-06 11:51 -35.00925 139.21217 18107 ft 441 kts 93°
2026-05-06 11:51 -35.00835 139.24968 18682 ft 444 kts 94°
2026-05-06 11:52 -35.00742 139.28751 19183 ft 448 kts 93°
2026-05-06 11:52 -35.00647 139.32566 19696 ft 452 kts 93°
2026-05-06 11:52 -35.00552 139.36355 20186 ft 455 kts 93°
2026-05-06 11:52 -35.00456 139.40227 20686 ft 458 kts 93°
2026-05-06 11:53 -35.00359 139.44121 21146 ft 462 kts 93°
2026-05-06 11:53 -35.00260 139.48052 21593 ft 465 kts 93°
2026-05-06 11:53 -35.00161 139.52010 22033 ft 468 kts 93°
2026-05-06 11:53 -35.00057 139.55995 22425 ft 472 kts 92°
2026-05-06 11:54 -34.99949 139.60005 22819 ft 475 kts 92°
2026-05-06 11:54 -34.99837 139.64044 23239 ft 477 kts 92°
2026-05-06 11:54 -34.99723 139.68099 23645 ft 480 kts 92°
2026-05-06 11:54 -34.99609 139.72179 24013 ft 483 kts 92°
2026-05-06 11:55 -34.99496 139.76224 24347 ft 486 kts 92°
2026-05-06 11:55 -34.99381 139.80359 24626 ft 489 kts 92°
2026-05-06 11:55 -34.99264 139.84522 24939 ft 492 kts 92°
2026-05-06 11:55 -34.99144 139.88695 25261 ft 494 kts 91°
2026-05-06 11:56 -34.99020 139.92892 25584 ft 496 kts 91°
2026-05-06 11:56 -34.98892 139.97102 25920 ft 498 kts 91°
2026-05-06 11:56 -34.98762 140.01332 26187 ft 502 kts 91°
2026-05-06 11:56 -34.98631 140.05592 26498 ft 503 kts 91°
2026-05-06 11:57 -34.98501 140.09802 26848 ft 504 kts 91°
2026-05-06 11:57 -34.98372 140.14073 27206 ft 505 kts 91°
2026-05-06 11:57 -34.98244 140.18342 27657 ft 503 kts 91°
2026-05-06 11:57 -34.98118 140.22604 28096 ft 504 kts 90°
2026-05-06 11:58 -34.97989 140.26873 28486 ft 504 kts 90°
2026-05-06 11:58 -34.97857 140.31146 28925 ft 503 kts 90°
2026-05-06 11:58 -34.97721 140.35404 29368 ft 503 kts 90°
2026-05-06 11:58 -34.97648 140.39661 29834 ft 501 kts 92°
2026-05-06 11:59 -34.97661 140.43847 30300 ft 500 kts 93°
2026-05-06 11:59 -34.97731 140.48086 30652 ft 501 kts 94°
2026-05-06 11:59 -34.97822 140.52330 30999 ft 500 kts 93°
2026-05-06 11:59 -34.97902 140.56560 31437 ft 498 kts 93°
2026-05-06 12:00 -34.97958 140.60778 31844 ft 498 kts 92°
2026-05-06 12:00 -34.97991 140.65002 32285 ft 497 kts 91°
2026-05-06 12:00 -34.98010 140.69215 32624 ft 499 kts 91°
2026-05-06 12:00 -34.98025 140.73443 32974 ft 499 kts 91°
2026-05-06 12:01 -34.98042 140.77674 33353 ft 498 kts 91°
2026-05-06 12:01 -34.98051 140.81900 33744 ft 498 kts 91°
2026-05-06 12:01 -34.98061 140.86119 34146 ft 498 kts 91°
2026-05-06 12:01 -34.98075 140.90288 34493 ft 499 kts 90°
2026-05-06 12:02 -34.98093 140.94526 34743 ft 501 kts 90°
2026-05-06 12:02 -34.98111 140.98772 35029 ft 502 kts 90°
2026-05-06 12:02 -34.98126 141.03024 35286 ft 502 kts 90°
2026-05-06 12:02 -34.98141 141.07283 35571 ft 502 kts 90°
2026-05-06 12:03 -34.98157 141.11540 35872 ft 503 kts 89°
2026-05-06 12:03 -34.98171 141.15810 36091 ft 504 kts 89°
2026-05-06 12:03 -34.98181 141.20087 36332 ft 505 kts 89°
2026-05-06 12:03 -34.98185 141.24371 36589 ft 506 kts 89°
2026-05-06 12:04 -34.98187 141.28607 36840 ft 506 kts 89°
2026-05-06 12:04 -34.98189 141.32891 37095 ft 506 kts 89°
2026-05-06 12:04 -34.98191 141.37194 37261 ft 509 kts 89°
2026-05-06 12:04 -34.98193 141.41523 37283 ft 514 kts 89°
2026-05-06 12:05 -34.98195 141.50281 37282 ft 518 kts 89°
2026-05-06 12:05 -34.98192 141.59069 37266 ft 518 kts 89°
2026-05-06 12:06 -34.98171 141.67789 37274 ft 518 kts 89°
2026-05-06 12:06 -34.98154 141.76563 37274 ft 517 kts 89°
2026-05-06 12:07 -34.98133 141.85336 37280 ft 518 kts 88°
2026-05-06 12:07 -34.98100 141.94132 37265 ft 519 kts 88°
2026-05-06 12:08 -34.98056 142.02864 37265 ft 519 kts 88°
2026-05-06 12:08 -34.98009 142.11677 37227 ft 520 kts 88°
2026-05-06 12:09 -34.97958 142.20484 37245 ft 520 kts 88°
2026-05-06 12:09 -34.97898 142.29295 37266 ft 520 kts 88°
2026-05-06 12:10 -34.97834 142.38115 37258 ft 520 kts 88°
2026-05-06 12:10 -34.97763 142.46874 37255 ft 520 kts 88°
2026-05-06 12:11 -34.97685 142.55706 37258 ft 521 kts 87°
2026-05-06 12:11 -34.97606 142.64543 37250 ft 522 kts 87°
2026-05-06 12:12 -34.97519 142.73380 37234 ft 521 kts 87°
2026-05-06 12:12 -34.97415 142.82211 37250 ft 521 kts 87°
2026-05-06 12:13 -34.97311 142.90984 37245 ft 521 kts 87°
2026-05-06 12:13 -34.97199 142.99832 37238 ft 522 kts 87°
2026-05-06 12:14 -34.97083 143.08674 37240 ft 522 kts 86°
2026-05-06 12:14 -34.96956 143.17523 37234 ft 522 kts 86°
2026-05-06 12:15 -34.96832 143.26312 37223 ft 522 kts 86°
2026-05-06 12:15 -34.96730 143.35157 37221 ft 522 kts 87°
2026-05-06 12:16 -34.96629 143.44013 37221 ft 522 kts 87°
2026-05-06 12:16 -34.96531 143.52869 37216 ft 522 kts 86°
2026-05-06 12:17 -34.96421 143.61662 37220 ft 522 kts 86°
2026-05-06 12:17 -34.96290 143.70518 37209 ft 523 kts 86°
2026-05-06 12:18 -34.96153 143.79374 37211 ft 522 kts 86°
2026-05-06 12:18 -34.96004 143.88217 37207 ft 522 kts 86°
2026-05-06 12:19 -34.95850 143.97072 37206 ft 522 kts 86°
2026-05-06 12:19 -34.95696 144.05855 37208 ft 522 kts 86°
2026-05-06 12:20 -34.95529 144.14697 37209 ft 522 kts 85°
2026-05-06 12:20 -34.95355 144.23540 37207 ft 522 kts 86°
2026-05-06 12:21 -34.95191 144.32386 37210 ft 522 kts 85°
2026-05-06 12:21 -34.95016 144.41233 37203 ft 522 kts 85°
2026-05-06 12:22 -34.94833 144.50012 37209 ft 521 kts 85°
2026-05-06 12:22 -34.94632 144.58838 37193 ft 521 kts 85°
2026-05-06 12:23 -34.94434 144.67674 37191 ft 522 kts 85°
2026-05-06 12:23 -34.94224 144.76516 37186 ft 522 kts 85°
2026-05-06 12:24 -34.94007 144.85297 37188 ft 522 kts 85°
2026-05-06 12:24 -34.93786 144.94154 37186 ft 523 kts 85°
2026-05-06 12:25 -34.93563 145.03002 37184 ft 522 kts 84°
2026-05-06 12:25 -34.93330 145.11833 37185 ft 521 kts 84°
2026-05-06 12:26 -34.93085 145.20606 37186 ft 521 kts 84°
2026-05-06 12:26 -34.92826 145.29427 37185 ft 521 kts 84°
2026-05-06 12:27 -34.92565 145.38240 37182 ft 520 kts 84°
2026-05-06 12:27 -34.92298 145.47046 37177 ft 520 kts 84°
2026-05-06 12:28 -34.92038 145.55848 37142 ft 520 kts 84°
2026-05-06 12:28 -34.91767 145.64593 37162 ft 520 kts 84°
2026-05-06 12:29 -34.91477 145.73393 37166 ft 520 kts 83°
2026-05-06 12:29 -34.91175 145.82186 37176 ft 519 kts 83°
2026-05-06 12:30 -34.90875 145.90978 37176 ft 519 kts 83°
2026-05-06 12:30 -34.90558 145.99706 37172 ft 519 kts 83°
2026-05-06 12:31 -34.90239 146.08489 37178 ft 519 kts 83°
2026-05-06 12:31 -34.89931 146.17273 37152 ft 519 kts 83°
2026-05-06 12:32 -34.89612 146.26056 37169 ft 519 kts 83°
2026-05-06 12:32 -34.89277 146.34830 37174 ft 518 kts 83°
2026-05-06 12:33 -34.88946 146.43536 37184 ft 518 kts 83°
2026-05-06 12:33 -34.88605 146.52297 37181 ft 518 kts 83°
2026-05-06 12:34 -34.88258 146.61059 37181 ft 518 kts 83°
2026-05-06 12:34 -34.87903 146.69816 37182 ft 518 kts 83°
2026-05-06 12:35 -34.87552 146.78514 37151 ft 517 kts 83°
2026-05-06 12:35 -34.87190 146.87254 37188 ft 517 kts 83°
2026-05-06 12:36 -34.86818 146.95989 37182 ft 516 kts 82°
2026-05-06 12:36 -34.86439 147.04712 37181 ft 516 kts 82°
2026-05-06 12:37 -34.86054 147.13431 37184 ft 516 kts 82°
2026-05-06 12:37 -34.85670 147.22146 37179 ft 515 kts 82°
2026-05-06 12:38 -34.85279 147.30796 37180 ft 515 kts 82°
2026-05-06 12:38 -34.84879 147.39494 37155 ft 515 kts 82°
2026-05-06 12:39 -34.84472 147.48192 37174 ft 515 kts 82°
2026-05-06 12:39 -34.84056 147.56896 37183 ft 515 kts 82°
2026-05-06 12:40 -34.83634 147.65588 37183 ft 515 kts 82°
2026-05-06 12:40 -34.83215 147.74224 37189 ft 514 kts 82°
2026-05-06 12:41 -34.82787 147.82905 37187 ft 514 kts 82°
2026-05-06 12:41 -34.82355 147.91586 37191 ft 514 kts 82°
2026-05-06 12:42 -34.81919 148.00252 37184 ft 513 kts 82°
2026-05-06 12:42 -34.81474 148.08850 37171 ft 512 kts 82°
2026-05-06 12:43 -34.81010 148.17502 37178 ft 513 kts 82°
2026-05-06 12:43 -34.80548 148.26153 37179 ft 512 kts 82°
2026-05-06 12:44 -34.80084 148.34797 37180 ft 512 kts 82°
2026-05-06 12:44 -34.79607 148.43427 37182 ft 511 kts 82°
2026-05-06 12:45 -34.79134 148.52000 37171 ft 511 kts 82°
2026-05-06 12:46 -34.78412 148.64941 37171 ft 511 kts 82°
2026-05-06 12:46 -34.77924 148.73570 37148 ft 512 kts 82°
2026-05-06 12:47 -34.77423 148.82159 37160 ft 512 kts 82°
2026-05-06 12:47 -34.76917 148.90800 37165 ft 513 kts 82°
2026-05-06 12:48 -34.76415 148.99444 37169 ft 513 kts 82°
2026-05-06 12:48 -34.75899 149.08094 37159 ft 513 kts 82°
2026-05-06 12:49 -34.75368 149.16676 37168 ft 513 kts 82°
2026-05-06 12:49 -34.74926 149.23804 37174 ft 513 kts 82°
2026-05-06 12:50 -34.74338 149.33324 37010 ft 514 kts 82°
2026-05-06 12:50 -34.73839 149.37596 36738 ft 507 kts 71°
2026-05-06 12:50 -34.72764 149.41624 36491 ft 498 kts 60°
2026-05-06 12:50 -34.71221 149.45360 36237 ft 493 kts 55°
2026-05-06 12:51 -34.69632 149.48993 35982 ft 493 kts 55°
2026-05-06 12:51 -34.68026 149.52671 35732 ft 493 kts 56°
2026-05-06 12:51 -34.66420 149.56352 35490 ft 493 kts 56°
2026-05-06 12:51 -34.64814 149.60032 35247 ft 493 kts 56°
2026-05-06 12:52 -34.63205 149.63716 35010 ft 493 kts 56°
2026-05-06 12:52 -34.61595 149.67392 34393 ft 494 kts 56°
2026-05-06 12:52 -34.59972 149.71081 33511 ft 496 kts 56°
2026-05-06 12:52 -34.58529 149.74360 32755 ft 496 kts 56°
2026-05-06 12:53 -34.56902 149.78059 31847 ft 497 kts 56°
2026-05-06 12:53 -34.55428 149.81408 31033 ft 498 kts 57°
2026-05-06 12:53 -34.53800 149.85110 30095 ft 499 kts 57°
2026-05-06 12:53 -34.52164 149.88828 28989 ft 500 kts 57°
2026-05-06 12:54 -34.50527 149.92547 27883 ft 500 kts 57°
2026-05-06 12:54 -34.48891 149.96256 26710 ft 500 kts 58°
2026-05-06 12:54 -34.47245 149.99980 25441 ft 502 kts 58°
2026-05-06 12:54 -34.45589 150.03715 24194 ft 504 kts 58°
2026-05-06 12:55 -34.43932 150.07449 23040 ft 501 kts 58°
2026-05-06 12:55 -34.42317 150.11090 22126 ft 491 kts 58°
2026-05-06 12:55 -34.40746 150.14637 21184 ft 469 kts 58°
2026-05-06 12:55 -34.39251 150.18011 20286 ft 449 kts 58°
2026-05-06 12:56 -34.37802 150.21271 19433 ft 433 kts 58°
2026-05-06 12:56 -34.36375 150.24463 18605 ft 430 kts 58°
2026-05-06 12:56 -34.34955 150.27631 17696 ft 426 kts 58°
2026-05-06 12:56 -34.33544 150.30777 16861 ft 426 kts 58°
2026-05-06 12:57 -34.32131 150.33930 16024 ft 428 kts 58°
2026-05-06 12:57 -34.31190 150.36032 15469 ft 429 kts 58°
2026-05-06 12:57 -34.29551 150.39713 14533 ft 431 kts 59°
2026-05-06 12:57 -34.28131 150.42907 13723 ft 432 kts 59°
2026-05-06 12:58 -34.26706 150.46104 12926 ft 430 kts 59°
2026-05-06 12:58 -34.25296 150.49257 12177 ft 420 kts 59°
2026-05-06 12:58 -34.23948 150.52281 11472 ft 397 kts 59°
2026-05-06 12:58 -34.22684 150.55122 11158 ft 368 kts 60°
2026-05-06 12:59 -34.21522 150.57731 11003 ft 339 kts 59°
2026-05-06 12:59 -34.20450 150.60128 10770 ft 319 kts 59°
2026-05-06 12:59 -34.19415 150.62430 10495 ft 308 kts 59°
2026-05-06 12:59 -34.18389 150.64696 10251 ft 307 kts 59°
2026-05-06 13:00 -34.17364 150.66955 10008 ft 306 kts 59°
2026-05-06 13:00 -34.16350 150.69209 9870 ft 306 kts 59°
2026-05-06 13:00 -34.15336 150.71460 9739 ft 305 kts 59°
2026-05-06 13:00 -34.14325 150.73700 9609 ft 304 kts 59°
2026-05-06 13:01 -34.13317 150.75936 9466 ft 302 kts 59°
2026-05-06 13:01 -34.12316 150.78153 9336 ft 301 kts 59°
2026-05-06 13:01 -34.11318 150.80374 9205 ft 300 kts 59°
2026-05-06 13:01 -34.10334 150.82554 9016 ft 300 kts 59°
2026-05-06 13:02 -34.09340 150.84755 8733 ft 297 kts 59°
2026-05-06 13:02 -34.08359 150.86934 8442 ft 295 kts 59°
2026-05-06 13:02 -34.07379 150.89112 8144 ft 294 kts 58°
2026-05-06 13:02 -34.06405 150.91271 7843 ft 292 kts 58°
2026-05-06 13:03 -34.05437 150.93419 7554 ft 291 kts 58°
2026-05-06 13:03 -34.04475 150.95563 7267 ft 289 kts 58°
2026-05-06 13:03 -34.03686 150.97793 6980 ft 291 kts 75°
2026-05-06 13:03 -34.03572 151.00223 6695 ft 293 kts 97°
2026-05-06 13:04 -34.04193 151.02554 6380 ft 293 kts 119°
2026-05-06 13:04 -34.05444 151.04473 6059 ft 291 kts 135°
2026-05-06 13:04 -34.06843 151.06183 5747 ft 289 kts 140°
2026-05-06 13:04 -34.08489 151.07533 5457 ft 284 kts 156°
2026-05-06 13:05 -34.10330 151.08328 5191 ft 281 kts 169°
2026-05-06 13:05 -34.12237 151.08830 4915 ft 281 kts 170°
2026-05-06 13:05 -34.14151 151.09327 4636 ft 281 kts 170°
2026-05-06 13:05 -34.16061 151.09819 4361 ft 280 kts 170°
2026-05-06 13:06 -34.17954 151.10320 4087 ft 278 kts 167°
2026-05-06 13:06 -34.19484 151.11183 3908 ft 275 kts 142°
2026-05-06 13:06 -34.20629 151.12879 3792 ft 264 kts 112°
2026-05-06 13:06 -34.20985 151.14976 3659 ft 250 kts 87°
2026-05-06 13:07 -34.20934 151.17033 3539 ft 240 kts 82°
2026-05-06 13:07 -34.20774 151.18172 3464 ft 230 kts 66°
2026-05-06 13:07 -34.19550 151.19998 3195 ft 210 kts 28°
2026-05-06 13:07 -34.18299 151.20890 3025 ft 208 kts 24°
2026-05-06 13:08 -34.17064 151.21700 2995 ft 198 kts 23°
2026-05-06 13:08 -34.15852 151.22451 2998 ft 193 kts 14°
2026-05-06 13:08 -34.14560 151.22720 3000 ft 188 kts 352°
2026-05-06 13:08 -34.13290 151.22455 3009 ft 185 kts 345°
2026-05-06 13:09 -34.12038 151.22127 2994 ft 185 kts 344°
2026-05-06 13:09 -34.11208 151.21911 2908 ft 183 kts 344°
2026-05-06 13:09 -34.09562 151.21482 2643 ft 182 kts 345°
2026-05-06 13:09 -34.08330 151.21160 2410 ft 180 kts 345°
2026-05-06 13:10 -34.07110 151.20842 2171 ft 179 kts 345°
2026-05-06 13:10 -34.05898 151.20526 1940 ft 178 kts 346°
2026-05-06 13:10 -34.05102 151.20320 1805 ft 169 kts 346°
2026-05-06 13:10 -34.04010 151.20037 1570 ft 157 kts 345°
2026-05-06 13:11 -34.02994 151.19774 1370 ft 142 kts 346°
2026-05-06 13:11 -34.02059 151.19532 1152 ft 135 kts 345°
2026-05-06 13:11 -34.01153 151.19295 979 ft 132 kts 345°
2026-05-06 13:11 -34.00256 151.19062 808 ft 132 kts 345°
2026-05-06 13:12 -33.99361 151.18829 639 ft 131 kts 346°
2026-05-06 13:12 -33.98461 151.18595 464 ft 132 kts 345°
2026-05-06 13:12 -33.97562 151.18361 286 ft 132 kts 345°
2026-05-06 13:12 -33.96661 151.18128 133 ft 132 kts 346°
2026-05-06 13:13 -33.95795 151.17897 30 ft 116 kts 346°
2026-05-06 13:13 -33.95167 151.17735 28 ft 66 kts 348°
2026-05-06 13:13 -33.94795 151.17640 29 ft 48 kts 348°
2026-05-06 13:13 -33.94484 151.17563 30 ft 45 kts 348°
2026-05-06 13:14 -33.94178 151.17482 29 ft 44 kts 348°
2026-05-06 13:14 -33.93966 151.17432 26 ft 17 kts 354°
2026-05-06 13:14 -33.93906 151.17489 27 ft 9 kts 75°
2026-05-06 13:14 -33.93893 151.17548 28 ft 3 kts 75°
2026-05-06 13:15 -33.93892 151.17553 29 ft 1 kts 76°
2026-05-06 13:15 -33.93889 151.17564 29 ft 0 kts 75°
2026-05-06 13:16 -33.93888 151.17569 29 ft 2 kts 70°
2026-05-06 13:16 -33.93833 151.17592 29 ft 16 kts 352°
2026-05-06 13:17 -33.93706 151.17563 29 ft 19 kts 352°
2026-05-06 13:17 -33.93607 151.17613 30 ft 15 kts
2026-05-06 13:17 -33.93551 151.17622 30 ft 5 kts 79°
2026-05-06 13:17 -33.93557 151.17669 30 ft 4 kts 100°
2026-05-06 13:18 -33.93559 151.17684 30 ft 0 kts 100°
2026-05-06 13:18 -33.93559 151.17687 30 ft 0 kts 100°